Time,TemperatureF,DewpointF,PressureIn,WindDirection,WindDirectionDegrees,WindSpeedMPH,WindSpeedGustMPH,Humidity,HourlyPrecipIn,Conditions,Clouds,dailyrainin,SolarRadiationWatts/m^2,SoftwareType,DateUTC
2013-04-17 00:12:00,69.0,-28.0,-100.00,ESE,122,11.0,27.0,0,0.00,,,0.00,0.000000,,2013-04-17 10:12:00,
2013-04-17 00:23:00,69.0,-28.0,-100.00,ESE,122,11.0,27.0,0,0.00,,,0.00,0.000000,,2013-04-17 10:23:00,
2013-04-17 00:32:00,69.0,-28.0,-100.00,ESE,122,11.0,27.0,0,0.00,,,0.00,0.000000,,2013-04-17 10:32:00,
2013-04-17 00:42:00,69.0,-28.0,-100.00,ESE,122,11.0,27.0,0,0.00,,,0.00,0.000000,,2013-04-17 10:42:00,
2013-04-17 01:12:00,69.0,-28.0,-100.00,East,95,9.0,27.0,0,0.00,,,0.00,0.000000,,2013-04-17 11:12:00,
2013-04-17 01:22:00,69.0,-28.0,-100.00,East,95,9.0,27.0,0,0.00,,,0.00,0.000000,,2013-04-17 11:22:00,
2013-04-17 01:32:00,69.0,-28.0,-100.00,East,95,9.0,27.0,0,0.00,,,0.00,0.000000,,2013-04-17 11:32:00,
2013-04-17 01:42:00,69.0,-28.0,-100.00,East,95,9.0,27.0,0,0.00,,,0.00,0.000000,,2013-04-17 11:42:00,
2013-04-17 01:51:00,69.0,-28.0,-100.00,East,95,9.0,27.0,0,0.00,,,0.00,0.000000,,2013-04-17 11:51:00,
2013-04-17 02:12:00,68.0,-28.0,-100.00,SSE,150,8.0,18.0,0,0.00,,,0.00,0.000000,,2013-04-17 12:12:00,
2013-04-17 02:22:00,68.0,-28.0,-100.00,SSE,150,8.0,18.0,0,0.00,,,0.00,0.000000,,2013-04-17 12:22:00,
2013-04-17 02:32:00,68.0,-28.0,-100.00,SSE,150,8.0,18.0,0,0.00,,,0.00,0.000000,,2013-04-17 12:32:00,
2013-04-17 02:42:00,68.0,-28.0,-100.00,SSE,150,8.0,18.0,0,0.00,,,0.00,0.000000,,2013-04-17 12:42:00,
2013-04-17 02:51:00,68.0,-28.0,-100.00,SSE,150,8.0,18.0,0,0.00,,,0.00,0.000000,,2013-04-17 12:51:00,
2013-04-17 02:52:00,69.0,-28.0,-100.00,East,81,8.0,24.0,0,0.00,,,0.00,0.000000,,2013-04-17 12:52:00,
2013-04-17 03:22:00,69.0,-28.0,-100.00,East,81,8.0,24.0,0,0.00,,,0.00,0.000000,,2013-04-17 13:22:00,
2013-04-17 03:32:00,69.0,-28.0,-100.00,East,81,8.0,24.0,0,0.00,,,0.00,0.000000,,2013-04-17 13:32:00,
2013-04-17 03:42:00,69.0,-28.0,-100.00,East,81,8.0,24.0,0,0.00,,,0.00,0.000000,,2013-04-17 13:42:00,
2013-04-17 03:52:00,68.0,-28.0,-100.00,South,189,8.0,27.0,0,0.00,,,0.00,0.000000,,2013-04-17 13:52:00,
2013-04-17 04:12:00,68.0,-28.0,-100.00,South,189,8.0,27.0,0,0.00,,,0.00,0.000000,,2013-04-17 14:12:00,
2013-04-17 04:22:00,68.0,-28.0,-100.00,South,189,8.0,27.0,0,0.00,,,0.00,0.000000,,2013-04-17 14:22:00,
2013-04-17 04:32:00,68.0,-28.0,-100.00,South,189,8.0,27.0,0,0.00,,,0.00,0.000000,,2013-04-17 14:32:00,
2013-04-17 04:42:00,68.0,-28.0,-100.00,South,189,8.0,27.0,0,0.00,,,0.00,0.000000,,2013-04-17 14:42:00,
2013-04-17 04:52:00,68.0,-28.0,-100.00,ENE,70,11.0,26.0,0,0.00,,,-99.99,0.000000,,2013-04-17 14:52:00,
2013-04-17 05:22:00,68.0,-28.0,-100.00,ENE,70,11.0,26.0,0,0.00,,,-99.99,0.000000,,2013-04-17 15:22:00,
2013-04-17 05:33:00,68.0,-28.0,-100.00,ENE,70,11.0,26.0,0,0.00,,,-99.99,0.000000,,2013-04-17 15:33:00,
2013-04-17 05:42:00,68.0,-28.0,-100.00,ENE,70,11.0,26.0,0,0.00,,,-99.99,0.000000,,2013-04-17 15:42:00,
2013-04-17 05:52:00,68.0,-28.0,-100.00,ENE,74,8.0,32.0,0,0.00,,,0.00,0.000000,,2013-04-17 15:52:00,
2013-04-17 06:22:00,68.0,-28.0,-100.00,ENE,74,8.0,32.0,0,0.00,,,0.00,0.000000,,2013-04-17 16:22:00,
2013-04-17 06:32:00,68.0,-28.0,-100.00,ENE,74,8.0,32.0,0,0.00,,,0.00,0.000000,,2013-04-17 16:32:00,
2013-04-17 06:42:00,68.0,-28.0,-100.00,ENE,74,8.0,32.0,0,0.00,,,0.00,0.000000,,2013-04-17 16:42:00,
2013-04-17 07:22:00,69.0,-28.0,-100.00,ENE,76,10.0,31.0,0,0.00,,,0.00,0.000000,,2013-04-17 17:22:00,
2013-04-17 07:33:00,69.0,-28.0,-100.00,ENE,76,10.0,31.0,0,0.00,,,0.00,0.000000,,2013-04-17 17:33:00,
2013-04-17 07:42:00,69.0,-28.0,-100.00,ENE,76,10.0,31.0,0,0.00,,,0.00,0.000000,,2013-04-17 17:42:00,
2013-04-17 07:51:00,69.0,-28.0,-100.00,ENE,76,10.0,31.0,0,0.00,,,0.00,0.000000,,2013-04-17 17:51:00,
2013-04-17 08:12:00,69.0,-28.0,-100.00,ESE,119,11.0,30.0,0,0.00,,,0.00,26.000000,,2013-04-17 18:12:00,
2013-04-17 08:22:00,69.0,-28.0,-100.00,ESE,119,11.0,30.0,0,0.00,,,0.00,26.000000,,2013-04-17 18:22:00,
2013-04-17 08:32:00,69.0,-28.0,-100.00,ESE,119,11.0,30.0,0,0.00,,,0.00,26.000000,,2013-04-17 18:32:00,
2013-04-17 08:42:00,69.0,-28.0,-100.00,ESE,119,11.0,30.0,0,0.00,,,0.00,26.000000,,2013-04-17 18:42:00,
2013-04-17 08:51:00,69.0,-28.0,-100.00,ESE,119,11.0,30.0,0,0.00,,,0.00,26.000000,,2013-04-17 18:51:00,
2013-04-17 08:52:00,71.0,-26.0,-100.00,NE,49,21.0,27.0,0,0.00,,,0.00,103.000000,,2013-04-17 18:52:00,
2013-04-17 09:12:00,71.0,-26.0,-100.00,NE,49,21.0,27.0,0,0.00,,,0.00,103.000000,,2013-04-17 19:12:00,
2013-04-17 09:22:00,71.0,-26.0,-100.00,NE,49,21.0,27.0,0,0.00,,,0.00,103.000000,,2013-04-17 19:22:00,
2013-04-17 09:32:00,71.0,-26.0,-100.00,NE,49,21.0,27.0,0,0.00,,,0.00,103.000000,,2013-04-17 19:32:00,
2013-04-17 09:42:00,71.0,-26.0,-100.00,NE,49,21.0,27.0,0,0.00,,,0.00,103.000000,,2013-04-17 19:42:00,
2013-04-17 09:52:00,71.0,-26.0,-100.00,ESE,110,25.0,39.0,0,0.00,,,0.00,180.000000,,2013-04-17 19:52:00,
2013-04-17 10:22:00,71.0,-26.0,-100.00,ESE,110,25.0,39.0,0,0.00,,,0.00,180.000000,,2013-04-17 20:22:00,
2013-04-17 10:32:00,71.0,-26.0,-100.00,ESE,110,25.0,39.0,0,0.00,,,0.00,180.000000,,2013-04-17 20:32:00,
2013-04-17 10:42:00,71.0,-26.0,-100.00,ESE,110,25.0,39.0,0,0.00,,,0.00,180.000000,,2013-04-17 20:42:00,
2013-04-17 10:52:00,73.0,-25.0,-100.00,WSW,256,23.0,39.0,0,0.00,,,0.00,457.000000,,2013-04-17 20:52:00,
2013-04-17 11:12:00,73.0,-25.0,-100.00,WSW,256,23.0,39.0,0,0.00,,,0.00,457.000000,,2013-04-17 21:12:00,
2013-04-17 11:22:00,73.0,-25.0,-100.00,WSW,256,23.0,39.0,0,0.00,,,0.00,457.000000,,2013-04-17 21:22:00,
2013-04-17 11:32:00,73.0,-25.0,-100.00,WSW,256,23.0,39.0,0,0.00,,,0.00,457.000000,,2013-04-17 21:32:00,
2013-04-17 11:42:00,73.0,-25.0,-100.00,WSW,256,23.0,39.0,0,0.00,,,0.00,457.000000,,2013-04-17 21:42:00,
2013-04-17 11:52:00,72.0,-26.0,-100.00,East,101,18.0,40.0,0,0.00,,,0.00,416.000000,,2013-04-17 21:52:00,
2013-04-17 12:12:00,72.0,-26.0,-100.00,East,101,18.0,40.0,0,0.00,,,0.00,416.000000,,2013-04-17 22:12:00,
2013-04-17 12:22:00,72.0,-26.0,-100.00,East,101,18.0,40.0,0,0.00,,,0.00,416.000000,,2013-04-17 22:22:00,
2013-04-17 12:33:00,72.0,-26.0,-100.00,East,101,18.0,40.0,0,0.00,,,0.00,416.000000,,2013-04-17 22:33:00,
2013-04-17 12:42:00,72.0,-26.0,-100.00,East,101,18.0,40.0,0,0.00,,,0.00,416.000000,,2013-04-17 22:42:00,
2013-04-17 12:52:00,75.0,-24.0,-100.00,ENE,61,20.0,36.0,0,0.00,,,0.00,544.000000,,2013-04-17 22:52:00,
2013-04-17 13:22:00,75.0,-24.0,-100.00,ENE,61,20.0,36.0,0,0.00,,,0.00,544.000000,,2013-04-17 23:22:00,
2013-04-17 13:32:00,75.0,-24.0,-100.00,ENE,61,20.0,36.0,0,0.00,,,0.00,544.000000,,2013-04-17 23:32:00,
2013-04-17 13:42:00,75.0,-24.0,-100.00,ENE,61,20.0,36.0,0,0.00,,,0.00,544.000000,,2013-04-17 23:42:00,
2013-04-17 13:52:00,74.0,-25.0,-100.00,WSW,248,22.0,36.0,0,0.00,,,0.00,1013.000000,,2013-04-17 23:52:00,
2013-04-17 14:22:00,74.0,-25.0,-100.00,WSW,248,22.0,36.0,0,0.00,,,0.00,1013.000000,,2013-04-18 00:22:00,
2013-04-17 14:32:00,74.0,-25.0,-100.00,WSW,248,22.0,36.0,0,0.00,,,0.00,1013.000000,,2013-04-18 00:32:00,
2013-04-17 14:42:00,74.0,-25.0,-100.00,WSW,248,22.0,36.0,0,0.00,,,0.00,1013.000000,,2013-04-18 00:42:00,
2013-04-17 14:52:00,76.0,-23.0,-100.00,East,96,22.0,37.0,0,0.00,,,0.00,967.000000,,2013-04-18 00:52:00,
2013-04-17 15:12:00,76.0,-23.0,-100.00,East,96,22.0,37.0,0,0.00,,,0.00,967.000000,,2013-04-18 01:12:00,
2013-04-17 15:22:00,76.0,-23.0,-100.00,East,96,22.0,37.0,0,0.00,,,0.00,967.000000,,2013-04-18 01:22:00,
2013-04-17 15:32:00,76.0,-23.0,-100.00,East,96,22.0,37.0,0,0.00,,,0.00,967.000000,,2013-04-18 01:32:00,
2013-04-17 15:42:00,76.0,-23.0,-100.00,East,96,22.0,37.0,0,0.00,,,0.00,967.000000,,2013-04-18 01:42:00,
2013-04-17 16:22:00,75.0,-24.0,-100.00,SSE,162,21.0,39.0,0,0.00,,,-99.99,775.000000,,2013-04-18 02:22:00,
2013-04-17 16:32:00,75.0,-24.0,-100.00,SSE,162,21.0,39.0,0,0.00,,,-99.99,775.000000,,2013-04-18 02:32:00,
2013-04-17 16:42:00,75.0,-24.0,-100.00,SSE,162,21.0,39.0,0,0.00,,,-99.99,775.000000,,2013-04-18 02:42:00,
2013-04-17 16:51:00,75.0,-24.0,-100.00,SSE,162,21.0,39.0,0,0.00,,,-99.99,775.000000,,2013-04-18 02:51:00,
2013-04-17 16:52:00,74.0,-25.0,-100.00,SSE,157,23.0,37.0,0,0.00,,,0.00,476.000000,,2013-04-18 02:52:00,
2013-04-17 17:22:00,74.0,-25.0,-100.00,SSE,157,23.0,37.0,0,0.00,,,0.00,476.000000,,2013-04-18 03:22:00,
2013-04-17 17:33:00,74.0,-25.0,-100.00,SSE,157,23.0,37.0,0,0.00,,,0.00,476.000000,,2013-04-18 03:33:00,
2013-04-17 17:43:00,74.0,-25.0,-100.00,SSE,157,23.0,37.0,0,0.00,,,0.00,476.000000,,2013-04-18 03:43:00,
2013-04-17 17:52:00,74.0,-25.0,-100.00,SSE,163,20.0,37.0,0,0.00,,,0.00,462.000000,,2013-04-18 03:52:00,
2013-04-17 18:23:00,74.0,-25.0,-100.00,SSE,163,20.0,37.0,0,0.00,,,0.00,462.000000,,2013-04-18 04:23:00,
2013-04-17 18:33:00,74.0,-25.0,-100.00,SSE,163,20.0,37.0,0,0.00,,,0.00,462.000000,,2013-04-18 04:33:00,
2013-04-17 18:43:00,74.0,-25.0,-100.00,SSE,163,20.0,37.0,0,0.00,,,0.00,462.000000,,2013-04-18 04:43:00,
2013-04-17 18:52:00,73.0,-25.0,-100.00,ESE,107,21.0,39.0,0,0.00,,,0.00,126.000000,,2013-04-18 04:52:00,
2013-04-17 19:12:00,73.0,-25.0,-100.00,ESE,107,21.0,39.0,0,0.00,,,0.00,126.000000,,2013-04-18 05:12:00,
2013-04-17 19:22:00,73.0,-25.0,-100.00,ESE,107,21.0,39.0,0,0.00,,,0.00,126.000000,,2013-04-18 05:22:00,
2013-04-17 19:32:00,73.0,-25.0,-100.00,ESE,107,21.0,39.0,0,0.00,,,0.00,126.000000,,2013-04-18 05:32:00,
2013-04-17 19:42:00,73.0,-25.0,-100.00,ESE,107,21.0,39.0,0,0.00,,,0.00,126.000000,,2013-04-18 05:42:00,
2013-04-17 19:52:00,71.0,-26.0,-100.00,NW,319,20.0,36.0,0,0.00,,,0.00,32.000000,,2013-04-18 05:52:00,
2013-04-17 20:22:00,71.0,-26.0,-100.00,NW,319,20.0,36.0,0,0.00,,,0.00,32.000000,,2013-04-18 06:22:00,
2013-04-17 20:32:00,71.0,-26.0,-100.00,NW,319,20.0,36.0,0,0.00,,,0.00,32.000000,,2013-04-18 06:32:00,
2013-04-17 20:42:00,71.0,-26.0,-100.00,NW,319,20.0,36.0,0,0.00,,,0.00,32.000000,,2013-04-18 06:42:00,
2013-04-17 20:52:00,69.0,-28.0,-100.00,ESE,113,18.0,35.0,0,0.00,,,0.00,0.000000,,2013-04-18 06:52:00,
2013-04-17 21:12:00,69.0,-28.0,-100.00,ESE,113,18.0,35.0,0,0.00,,,0.00,0.000000,,2013-04-18 07:12:00,
2013-04-17 21:22:00,69.0,-28.0,-100.00,ESE,113,18.0,35.0,0,0.00,,,0.00,0.000000,,2013-04-18 07:22:00,
2013-04-17 21:32:00,69.0,-28.0,-100.00,ESE,113,18.0,35.0,0,0.00,,,0.00,0.000000,,2013-04-18 07:32:00,
2013-04-17 21:42:00,69.0,-28.0,-100.00,ESE,113,18.0,35.0,0,0.00,,,0.00,0.000000,,2013-04-18 07:42:00,
2013-04-17 22:12:00,70.0,-27.0,-100.00,NNW,330,26.0,37.0,0,0.00,,,0.00,0.000000,,2013-04-18 08:12:00,
2013-04-17 22:22:00,70.0,-27.0,-100.00,NNW,330,26.0,37.0,0,0.00,,,0.00,0.000000,,2013-04-18 08:22:00,
2013-04-17 22:32:00,70.0,-27.0,-100.00,NNW,330,26.0,37.0,0,0.00,,,0.00,0.000000,,2013-04-18 08:32:00,
2013-04-17 22:42:00,70.0,-27.0,-100.00,NNW,330,26.0,37.0,0,0.00,,,0.00,0.000000,,2013-04-18 08:42:00,
2013-04-17 22:51:00,70.0,-27.0,-100.00,NNW,330,26.0,37.0,0,0.00,,,0.00,0.000000,,2013-04-18 08:51:00,
2013-04-17 22:52:00,70.0,-27.0,-100.00,East,98,22.0,39.0,0,0.00,,,0.00,0.000000,,2013-04-18 08:52:00,
2013-04-17 23:12:00,70.0,-27.0,-100.00,East,98,22.0,39.0,0,0.00,,,0.00,0.000000,,2013-04-18 09:12:00,
2013-04-17 23:22:00,70.0,-27.0,-100.00,East,98,22.0,39.0,0,0.00,,,0.00,0.000000,,2013-04-18 09:22:00,
2013-04-17 23:32:00,70.0,-27.0,-100.00,East,98,22.0,39.0,0,0.00,,,0.00,0.000000,,2013-04-18 09:32:00,
2013-04-17 23:42:00,70.0,-27.0,-100.00,East,98,22.0,39.0,0,0.00,,,0.00,0.000000,,2013-04-18 09:42:00,
2013-04-17 23:52:00,70.0,-27.0,-100.00,ESE,106,18.0,36.0,0,0.00,,,0.00,0.000000,,2013-04-18 09:52:00,